Regional Weather Roundup
Issued by NWS Charleston, SC

Current Version | Previous Version | Text Only | Print | Product List | Glossary On
Versions: 1 2 3 4 5 6 7 8 9 10 11 12 13 14 15 16 17 18 19 20 21 22 23 24 25 26 27 28 29 30 31 32 33 34 35 36 37 38 39 40 41 42 43 44 45 46 47 48 49 50
000
ASUS42 KCHS 260912
RWRCHS

REGIONAL WEATHER ROUNDUP
NATIONAL WEATHER SERVICE CHARLESTON SC
500 AM EDT WED APR 26 2017

NOTE: "FAIR" INDICATES FEW OR NO CLOUDS BELOW 12,000 FEET WITH NO
SIGNIFICANT WEATHER AND/OR OBSTRUCTIONS TO VISIBILITY.

NOT ALL STATIONS ARE QUALITY CONTROLLED. USE DATA WITH CAUTION...
ESPECIALLY DEWPOINT OBSERVATIONS.

SCZ027-030-031-034>040-042>050-261000-
...SOUTHEAST SOUTH CAROLINA...

CITY           SKY/WX    TMP DP  RH WIND       PRES   REMARKS
N CHARLESTON   PTCLDY    62  59  90 S3        29.77S
WATERFRONT PRK   N/A     69  66  90 E6        29.76F
JOHNS ISLAND   FAIR      63  63 100 CALM      29.78S
PINOPOLIS        N/A     66  63  88 S5        29.67S
MONCKS CORNER  CLOUDY    63  59  88 CALM      29.76F
SUMMERVILLE    CLOUDY    61  59  94 S3        29.78S
BEAUFORT MCAS  FOG       62  62 100 SW5       29.77S VSB 3/4
BEAUFORT ARPT  PTSUNNY   64  63  94 S3        29.77S FOG
HILTON HEAD IS CLEAR     66  66 100 SW6       29.78S
WALTERBORO     SUNNY     59  59 100 CALM      29.78S
ALLENDALE      FAIR      59  59 100 CALM      29.76S

...SOUTHERN MIDLANDS AND PEE DEE...

CITY           SKY/WX    TMP DP  RH WIND       PRES   REMARKS
GEORGETOWN     FAIR      55  55 100 CALM      29.78F
KINGSTREE      FAIR      59  57  94 CALM      29.76F
ORANGEBURG     CLEAR     61  60  97 CALM      29.77S
BARNWELL       FAIR      59  59 100 CALM      29.76F
AIKEN          FAIR      55  54  94 CALM      29.79F
MANNING        CLOUDY    59  59 100 CALM      29.76S
COLUMBIA       CLEAR     62  58  86 CALM      29.75F
SUMTER         CLOUDY    62  59  89 S5        29.74S
FLORENCE       MOCLDY    57  57 100 CALM      29.76F
MYRTLE BEACH   MOCLDY    60  58  92 W3        29.78S
N MYRTLE BEACH PTCLDY    60  60 100 CALM      29.77R

$$

GAZ063-065-086>088-099>101-113>116-118-119-134>141-150-261000-
...SOUTHEAST GEORGIA...

CITY           SKY/WX    TMP DP  RH WIND       PRES   REMARKS
SAVANNAH ARPT  CLEAR     64  56  75 SW5       29.79R
HUNTER AAF     PTCLDY    63  61  93 SW5       29.76S
FORT STEWART   PTCLDY    62  57  82 CALM      29.77R
STATESBORO     PTCLDY    58  58 100 CALM      29.78S
SYLVANIA       SUNNY    N/A N/A N/A CALM      29.78S
CLAXTON        FAIR     N/A N/A N/A CALM      29.79S

...CSRA...CENTRAL AND FAR SOUTHEAST GEORGIA...

CITY           SKY/WX    TMP DP  RH WIND       PRES   REMARKS
THOMSON        CLEAR     55  54  97 CALM      29.81R
AUGUSTA-BUSH   FOG       56  55  97 CALM      29.75S VSB 1/2
AUGUSTA-DANIEL CLEAR     62  58  86 SE3       29.76S
SWAINSBORO     FAIR      59  57  94 CALM      29.78S
VIDALIA        PTCLDY    61  59  94 SW6       29.78F
EASTMAN        FAIR      62  53  71 CALM      29.81S
HAZLEHURST     FAIR      64  61  91 SW3       29.78F
ALMA           CLEAR     57  56  96 CALM      29.79S
WAYCROSS       CLEAR     62  62 100 SW3       29.80R
JESUP          FAIR      55  54  94 CALM      29.80S
BAXLEY         FAIR      61  61 100 CALM      29.79S
BRUNSWICK      CLEAR     63  61  94 W7        29.81S
SAINT SIMONS   CLEAR     65  58  78 W8        29.79S

$$

SCZ027-028-034-036>038-045-046-048>050-GAZ119-141-261000-
...LAKE AND SUPPLEMENTAL COASTAL OBSERVATIONS...

STATION/POSITION TIME  TEMP    WIND        PRES    WAVE   SWELL
                       AIR SEA DIR/SP/G            HT/PER HT/PER/DIR
                 (UTC) (F)     (DEG/KT/KT) (MB)    (FT/S) (FT/S/D)
WINYAH BAY       NOT AVBL
LAKE MURRAY      0820   64     140/  4/  6 1007.1
ACE BASIN NERRS  NOT AVBL
FORT PULASKI     0848   66 74  260/  6/  8 1008.7R
SAPELO ISLAND    0800   66     250/  9     1009.0

$$

ANZ835-935-AMZ111-154-330-350-352-354-370-450-454-472-261000-
...C-MAN AND BUOY OBSERVATIONS...

STATION/POSITION TIME  TEMP    WIND        PRES    WAVE   SWELL
                       AIR SEA DIR/SP/G            HT/PER HT/PER/DIR
                 (UTC) (F)     (DEG/KT/KT) (MB)    (FT/S) (FT/S/D)
BUOY 41004       0850   70 72   CALM  /  2 1008.1F   4/ 9   5/110/ 9
BUOY 41008       0850   69 71  230/ 14/ 17 1008.6R   4/ 5   2/ 70/ 8
FOLLY BEACH CMAN 0800   70      90/  7/  7 1008.7F
CAPERS NEARSHORE 0808   73 71  130/  4/  8 1008.1F
FRIPP NEARSHORE  0808   71 71  210/  4/  6 1007.7F


STATION/POSITION TIME  TEMP    WIND        PRES    WAVE   SWELL
                       AIR SEA DIR/SP/G            HT/PER HT/PER/DIR
                 (UTC) (F)     (DEG/KT/KT) (MB)    (FT/S) (FT/S/D)
5E ST. MARYS GA  0830      72                N/A     3/11   2/ 90/11
FRYING PAN BUOY  0850   69 74  280/ 14/ 16 1007.6R   5/ 9   3/120/ 9
BUOY 41025       0850   68 77  280/ 12/ 16 1005.6R   8/ 9   7/160/ 9
CAPE LOOKOUT NC  0800   63     260/  8/  9 1006.1S
BUOY 41002       0850   73 75  250/ 14/ 17 1009.0R   9/ 8   7/250/ 8
BUOY 41010       0850   74 78  190/ 14/ 17 1010.4R   5/ 9   3/100/ 9
ST AUGUSTINE FL  0900   61 73  220/  3/  4 1011.0S


$$




USA.gov is the U.S. government's official web portal to all federal, state and local government web resources and services.